| time (UTC) | temp F | wind direction | speed MPH | gust MPH | rain 1hr in | rain 24hr in | rain mn in | humidity % | barometer mb |
| 20260904023005 | 52 | 48 | 0.0 | 0.0 | 0.00 | 0.00 | 0.00 | 51 | 999.7 |
| 20260904021502 | 52 | 48 | 0.0 | 0.0 | 0.00 | 0.00 | 0.00 | 53 | 999.7 |
| 20260904020000 | 52 | 48 | 0.0 | 0.0 | 0.00 | 0.00 | 0.00 | 54 | 999.9 |
| 20260904014600 | 52 | 48 | 0.0 | 0.0 | 0.00 | 0.00 | 0.00 | 55 | 1000.0 |
| 20260904013057 | 52 | 48 | 0.0 | 0.0 | 0.00 | 0.00 | 0.00 | 55 | 1000.1 |
| 20260904011556 | 52 | 48 | 0.0 | 0.0 | 0.00 | 0.00 | 0.00 | 56 | 1000.2 |
| 20260904010100 | 52 | 48 | 0.0 | 0.0 | 0.00 | 0.00 | 0.00 | 58 | 1000.4 |
| 20260904004559 | 52 | 48 | 0.0 | 0.0 | 0.00 | 0.00 | 0.00 | 58 | 1000.5 |
| 20260904003050 | 52 | 48 | 0.0 | 0.0 | 0.00 | 0.00 | 0.00 | 60 | 1000.7 |
| 20260904001547 | 52 | 48 | 0.0 | 0.0 | 0.00 | 0.00 | 0.00 | 62 | 1000.7 |
| 20260904000108 | 52 | 48 | 0.0 | 0.0 | 0.00 | 0.00 | 0.00 | 64 | 1000.8 |
| 20260903234546 | 52 | 48 | 0.0 | 0.0 | 0.00 | 0.00 | 0.00 | 66 | 1001.0 |
| 20260903233042 | 52 | 48 | 0.0 | 0.0 | 0.00 | 0.00 | 0.00 | 67 | 1001.1 |
| 20260903231540 | 53 | 48 | 0.0 | 0.0 | 0.00 | 0.00 | 0.00 | 69 | 1001.1 |
| 20260903230041 | 53 | 48 | 0.0 | 0.0 | 0.00 | 0.00 | 0.00 | 70 | 1001.2 |
| 20260903224536 | 53 | 48 | 0.0 | 0.0 | 0.00 | 0.00 | 0.00 | 71 | 1001.4 |
| 20260903223037 | 54 | 48 | 0.0 | 0.0 | 0.00 | 0.00 | 0.00 | 71 | 1001.6 |
| 20260903221530 | 54 | 48 | 0.0 | 0.0 | 0.00 | 0.00 | 0.00 | 72 | 1001.5 |
| 20260903220037 | 54 | 48 | 0.0 | 0.0 | 0.00 | 0.00 | 0.00 | 74 | 1001.6 |
| 20260903214527 | 54 | 48 | 0.0 | 0.0 | 0.00 | 0.00 | 0.00 | 75 | 1001.7 |
| 20260903213035 | 54 | 48 | 0.0 | 0.0 | 0.00 | 0.00 | 0.00 | 76 | 1001.8 |
| 20260903211554 | 55 | 48 | 0.0 | 0.0 | 0.00 | 0.00 | 0.00 | 77 | 1001.9 |
| 20260903210024 | 55 | 48 | 0.0 | 0.0 | 0.00 | 0.00 | 0.00 | 79 | 1001.8 |
| 20260903204523 | 55 | 48 | 0.0 | 0.0 | 0.00 | 0.00 | 0.00 | 79 | 1001.9 |
| 20260903203021 | 55 | 48 | 0.0 | 0.0 | 0.00 | 0.00 | 0.00 | 80 | 1002.0 |
| 20260903201521 | 55 | 48 | 0.0 | 0.0 | 0.00 | 0.00 | 0.00 | 81 | 1002.0 |
| 20260903200019 | 56 | 48 | 0.0 | 1.0 | 0.00 | 0.00 | 0.00 | 81 | 1002.2 |
| 20260903194518 | 56 | 48 | 0.0 | 0.0 | 0.00 | 0.00 | 0.00 | 81 | 1002.3 |
| 20260903193016 | 56 | 48 | 0.0 | 1.0 | 0.00 | 0.00 | 0.00 | 81 | 1002.5 |
| 20260903191516 | 57 | 48 | 0.0 | 1.0 | 0.00 | 0.00 | 0.00 | 81 | 1002.5 |
| 20260903190013 | 57 | 48 | 0.0 | 2.0 | 0.00 | 0.00 | 0.00 | 80 | 1002.7 |
| 20260903184513 | 57 | 50 | 0.0 | 2.0 | 0.00 | 0.00 | 0.00 | 80 | 1002.8 |
| 20260903183010 | 57 | 50 | 0.0 | 0.0 | 0.00 | 0.00 | 0.00 | 80 | 1002.9 |
| 20260903181512 | 58 | 50 | 0.0 | 0.0 | 0.00 | 0.00 | 0.00 | 79 | 1003.1 |
| 20260903180007 | 58 | 50 | 0.0 | 1.0 | 0.00 | 0.00 | 0.00 | 78 | 1003.2 |
| 20260903174519 | 59 | 50 | 0.0 | 1.0 | 0.00 | 0.00 | 0.00 | 78 | 1003.3 |
| 20260903173017 | 59 | 50 | 0.0 | 3.0 | 0.00 | 0.00 | 0.00 | 77 | 1003.3 |
| 20260903171505 | 60 | 42 | 1.0 | 4.0 | 0.00 | 0.00 | 0.00 | 76 | 1003.4 |
| 20260903170004 | 60 | 52 | 1.0 | 5.0 | 0.00 | 0.00 | 0.00 | 75 | 1003.4 |
| 20260903164503 | 61 | 28 | 3.0 | 7.0 | 0.00 | 0.00 | 0.00 | 74 | 1003.5 |
| 20260903163002 | 61 | 17 | 1.0 | 7.0 | 0.00 | 0.00 | 0.00 | 74 | 1003.5 |
| 20260903161503 | 61 | 334 | 5.0 | 10.0 | 0.00 | 0.00 | 0.00 | 72 | 1003.6 |
| 20260903160059 | 62 | 5 | 4.0 | 10.0 | 0.00 | 0.00 | 0.00 | 71 | 1003.8 |
| 20260903154600 | 62 | 19 | 2.0 | 8.0 | 0.00 | 0.00 | 0.00 | 71 | 1003.9 |
| 20260903153056 | 62 | 43 | 4.0 | 8.0 | 0.00 | 0.00 | 0.00 | 70 | 1004.0 |
| 20260903151557 | 63 | 52 | 3.0 | 8.0 | 0.00 | 0.00 | 0.00 | 69 | 1004.1 |
| 20260903150106 | 63 | 43 | 5.0 | 11.0 | 0.00 | 0.00 | 0.00 | 67 | 1004.3 |
| 20260903144551 | 63 | 66 | 4.0 | 10.0 | 0.00 | 0.00 | 0.00 | 65 | 1004.3 |
| 20260903143049 | 64 | 50 | 8.0 | 12.0 | 0.00 | 0.00 | 0.00 | 64 | 1004.5 |
| 20260903141548 | 65 | 40 | 4.0 | 10.0 | 0.00 | 0.00 | 0.00 | 63 | 1004.5 |
| 20260903140045 | 65 | 41 | 4.0 | 9.0 | 0.00 | 0.00 | 0.00 | 59 | 1004.6 |
| 20260903134542 | 64 | 62 | 4.0 | 8.0 | 0.00 | 0.00 | 0.00 | 54 | 1004.7 |
| 20260903133049 | 64 | 42 | 3.0 | 12.0 | 0.00 | 0.00 | 0.00 | 52 | 1004.8 |
| 20260903131537 | 64 | 35 | 4.0 | 11.0 | 0.00 | 0.00 | 0.00 | 52 | 1005.1 |
| 20260903130035 | 64 | 75 | 7.0 | 11.0 | 0.00 | 0.00 | 0.00 | 51 | 1005.2 |
| 20260903124536 | 64 | 54 | 5.0 | 10.0 | 0.00 | 0.00 | 0.00 | 50 | 1005.1 |
| 20260903123035 | 65 | 33 | 4.0 | 10.0 | 0.00 | 0.00 | 0.00 | 52 | 1005.3 |
| 20260903121528 | 65 | 51 | 3.0 | 9.0 | 0.00 | 0.00 | 0.00 | 52 | 1005.5 |
| 20260903120029 | 64 | 43 | 6.0 | 14.0 | 0.00 | 0.00 | 0.00 | 53 | 1005.7 |
| 20260903114524 | 64 | 49 | 6.0 | 13.0 | 0.00 | 0.00 | 0.00 | 52 | 1005.8 |
| 20260903113023 | 64 | 47 | 5.0 | 11.0 | 0.00 | 0.00 | 0.00 | 56 | 1005.9 |
| 20260903111528 | 61 | 28 | 5.0 | 10.0 | 0.00 | 0.00 | 0.00 | 58 | 1006.0 |
| 20260903110016 | 60 | 59 | 5.0 | 11.0 | 0.00 | 0.00 | 0.00 | 58 | 1006.2 |
| 20260903104516 | 60 | 60 | 9.0 | 13.0 | 0.00 | 0.00 | 0.00 | 59 | 1006.3 |
| 20260903103013 | 60 | 68 | 7.0 | 13.0 | 0.00 | 0.00 | 0.00 | 60 | 1006.3 |
| 20260903101509 | 58 | 78 | 5.0 | 13.0 | 0.00 | 0.00 | 0.00 | 62 | 1006.4 |
| 20260903100010 | 58 | 59 | 6.0 | 14.0 | 0.00 | 0.00 | 0.00 | 63 | 1006.4 |
| 20260903094508 | 58 | 70 | 8.0 | 17.0 | 0.00 | 0.00 | 0.00 | 61 | 1006.4 |
| 20260903093008 | 59 | 66 | 7.0 | 17.0 | 0.00 | 0.00 | 0.00 | 60 | 1006.4 |
| 20260903091504 | 59 | 17 | 11.0 | 18.0 | 0.00 | 0.00 | 0.00 | 62 | 1006.7 |
| 20260903090004 | 59 | 51 | 10.0 | 18.0 | 0.00 | 0.00 | 0.00 | 62 | 1006.7 |
| 20260903084501 | 58 | 56 | 8.0 | 16.0 | 0.00 | 0.00 | 0.00 | 63 | 1006.8 |
| 20260903083057 | 58 | 68 | 7.0 | 16.0 | 0.00 | 0.00 | 0.00 | 64 | 1006.8 |
| 20260903081554 | 57 | 62 | 9.0 | 19.0 | 0.00 | 0.00 | 0.00 | 65 | 1006.9 |
| 20260903080050 | 56 | 84 | 8.0 | 16.0 | 0.00 | 0.00 | 0.00 | 67 | 1006.8 |
| 20260903074549 | 56 | 53 | 8.0 | 14.0 | 0.00 | 0.00 | 0.00 | 68 | 1007.0 |
| 20260903073047 | 56 | 73 | 7.0 | 21.0 | 0.00 | 0.00 | 0.00 | 69 | 1007.0 |
| 20260903071541 | 55 | 76 | 12.0 | 21.0 | 0.00 | 0.00 | 0.00 | 69 | 1007.0 |
| 20260903070043 | 54 | 69 | 8.0 | 17.0 | 0.00 | 0.00 | 0.00 | 71 | 1006.9 |
| 20260903064535 | 54 | 85 | 13.0 | 22.0 | 0.00 | 0.00 | 0.00 | 71 | 1007.0 |
| 20260903063032 | 53 | 49 | 9.0 | 17.0 | 0.00 | 0.00 | 0.00 | 72 | 1007.1 |
| 20260903061544 | 53 | 56 | 12.0 | 21.0 | 0.00 | 0.00 | 0.00 | 71 | 1007.2 |
| 20260903060032 | 53 | 47 | 9.0 | 16.0 | 0.00 | 0.00 | 0.00 | 72 | 1007.2 |
| 20260903054528 | 52 | 80 | 9.0 | 14.0 | 0.00 | 0.01 | 0.00 | 75 | 1007.2 |
| 20260903053026 | 51 | 66 | 5.0 | 9.0 | 0.00 | 0.01 | 0.00 | 80 | 1007.3 |
| 20260903051527 | 50 | 31 | 3.0 | 8.0 | 0.00 | 0.01 | 0.00 | 81 | 1007.2 |
| 20260903050026 | 50 | 14 | 3.0 | 7.0 | 0.00 | 0.01 | 0.00 | 82 | 1007.2 |
| 20260903044525 | 50 | 39 | 3.0 | 10.0 | 0.00 | 0.01 | 0.00 | 81 | 1007.3 |
| 20260903043023 | 49 | 59 | 6.0 | 11.0 | 0.00 | 0.01 | 0.00 | 82 | 1007.2 |
| 20260903041526 | 49 | 52 | 4.0 | 10.0 | 0.00 | 0.01 | 0.00 | 82 | 1007.3 |
| 20260903040020 | 49 | 43 | 4.0 | 10.0 | 0.00 | 0.01 | 0.00 | 82 | 1007.3 |
| 20260903034519 | 50 | 33 | 4.0 | 10.0 | 0.00 | 0.01 | 0.00 | 82 | 1007.3 |
| 20260903033015 | 50 | 57 | 6.0 | 10.0 | 0.00 | 0.01 | 0.00 | 82 | 1007.3 |
| 20260903031514 | 50 | 55 | 6.0 | 11.0 | 0.00 | 0.01 | 0.00 | 82 | 1007.2 |
| 20260903030011 | 50 | 40 | 7.0 | 12.0 | 0.00 | 0.01 | 0.00 | 82 | 1007.2 |
| 20260903024509 | 51 | 64 | 7.0 | 12.0 | 0.00 | 0.01 | 0.00 | 82 | 1007.3 |